Gary Chicago International Airport Gary US
ICAO: KGYY
IATA: GYY
Category: Medium
Scheduled Services: No

Elevation: 591 ft
TransAlt. 18000 ft.

Airport Communications:
CHICAGO APP/DEP:133.1
ATIS:120.625
CTAF:125.6
GND:121.9
KANKAKEE RDO:114.2
TERRE HAUTE RDO:123.65
TWR:125.6

KGYY Zoom In..

If you have problems with the map follow the link
https://www.worldairports.se/pages/airport.php?
ICAO=KGYY

Runways:

(A) RW 02 length 3603 ft width 100 ft
---- / hdg 23

(B) RW 12 length 7003 ft width 150 ft
---- / hdg 126

(C) RW 20 length 3603 ft width 100 ft
---- / hdg 203

(D) RW 30 length 7003 ft width 150 ft
ILS 108.75 / hdg 306

Location; KGYY
Day. 17 / Time. 01.45 Zulu
* Altimeter: 30.11
* Temperature: 03° c. 37.4°f.
* Wind from: 250° Speed 09 kn.
Dewpoint: -01° c.
Visibility: 10 Statute Miles.
Clouds: Overcast 1900 ft.

KGYY 170145Z 25009KT 10SM OVC019 03/M01 A3011


Wind From 250°
Speed 09 kn.

 
 
jpsmedia.com for Web Design worldairports.se 2018   terms of use